Location: Alfortville
(48.8058°N, 2.4204°E)
Time: 12:21:00
(UTC+00:00)

Meteor 1-19 Rocket - Pass Details

Date: 16 December 2023
Orbit: 806 x 928 km, 81.2° (Epoch: 01 March)

Event Time Altitude Azimuth Distance (km) Brightness Sun altitude
Rises 16:46:40 0° 132° (SE) 3,538 7.2 -8.2°
Reaches altitude 10° 16:50:26 10° 108° (ESE) 2,618 6.3 -8.8°
Maximum altitude 16:53:16 14° 79° (E) 2,364 5.9 -9.2°
Enters shadow 16:55:28 11° 57° (ENE) 2,533 6.0 -9.5°
